Year,Month,Day,Hour,Minute,Value (Times are PST for barometer in hPa)
2016,03,13,00,00,1002.85
2016,03,13,00,01,1002.85
2016,03,13,00,02,1002.83
2016,03,13,00,03,1002.83
2016,03,13,00,04,1002.79
2016,03,13,00,05,1002.70
2016,03,13,00,06,1002.66
2016,03,13,00,07,1002.64
2016,03,13,00,08,1002.63
2016,03,13,00,09,1002.61
2016,03,13,00,10,1002.59
2016,03,13,00,11,1002.56
2016,03,13,00,12,1002.53
2016,03,13,00,13,1002.48
2016,03,13,00,14,1002.44
2016,03,13,00,15,1002.44
2016,03,13,00,16,1002.45
2016,03,13,00,17,1002.49
2016,03,13,00,18,1002.52
2016,03,13,00,19,1002.53
2016,03,13,00,20,1002.52
2016,03,13,00,21,1002.51
2016,03,13,00,22,1002.46
2016,03,13,00,23,1002.43
2016,03,13,00,24,1002.41
2016,03,13,00,25,1002.38
2016,03,13,00,26,1002.35
2016,03,13,00,27,1002.39
2016,03,13,00,28,1002.42
2016,03,13,00,29,1002.44
2016,03,13,00,30,1002.45
2016,03,13,00,31,1002.46
2016,03,13,00,32,1002.44
2016,03,13,00,33,1002.45
2016,03,13,00,34,1002.47
2016,03,13,00,35,1002.46
2016,03,13,00,36,1002.47
2016,03,13,00,37,1002.51
2016,03,13,00,38,1002.52
2016,03,13,00,39,1002.54
2016,03,13,00,40,1002.54
2016,03,13,00,41,1002.54
2016,03,13,00,42,1002.57
2016,03,13,00,43,1002.57
2016,03,13,00,44,1002.49
2016,03,13,00,45,1002.44
2016,03,13,00,46,1002.41
2016,03,13,00,47,1002.40
2016,03,13,00,48,1002.37
2016,03,13,00,49,1002.36
2016,03,13,00,50,1002.32
2016,03,13,00,51,1002.30
2016,03,13,00,52,1002.30
2016,03,13,00,53,1002.30
2016,03,13,00,54,1002.32
2016,03,13,00,55,1002.34
2016,03,13,00,56,1002.34
2016,03,13,00,57,1002.35
2016,03,13,00,58,1002.37
2016,03,13,00,59,1002.37
2016,03,13,01,00,1002.37
2016,03,13,01,01,1002.36
2016,03,13,01,02,1002.34
2016,03,13,01,03,1002.32
2016,03,13,01,04,1002.29
2016,03,13,01,05,1002.26
2016,03,13,01,06,1002.24
2016,03,13,01,07,1002.22
2016,03,13,01,08,1002.19
2016,03,13,01,09,1002.18
2016,03,13,01,10,1002.22
2016,03,13,01,11,1002.24
2016,03,13,01,12,1002.23
2016,03,13,01,13,1002.22
2016,03,13,01,14,1002.22
2016,03,13,01,15,1002.20
2016,03,13,01,16,1002.20
2016,03,13,01,17,1002.19
2016,03,13,01,18,1002.17
2016,03,13,01,19,1002.17
2016,03,13,01,20,1002.18
2016,03,13,01,21,1002.20
2016,03,13,01,22,1002.19
2016,03,13,01,23,1002.20
2016,03,13,01,24,1002.23
2016,03,13,01,25,1002.19
2016,03,13,01,26,1002.18
2016,03,13,01,27,1002.19
2016,03,13,01,28,1002.17
2016,03,13,01,29,1002.17
2016,03,13,01,30,1002.17
2016,03,13,01,31,1002.17
2016,03,13,01,32,1002.15
2016,03,13,01,33,1002.13
2016,03,13,01,34,1002.16
2016,03,13,01,35,1002.16
2016,03,13,01,36,1002.13
2016,03,13,01,37,1002.15
2016,03,13,01,38,1002.12
2016,03,13,01,39,1002.11
2016,03,13,01,40,1002.12
2016,03,13,01,41,1002.11
2016,03,13,01,42,1002.13
2016,03,13,01,43,1002.13
2016,03,13,01,44,1002.13
2016,03,13,01,45,1002.12
2016,03,13,01,46,1002.09
2016,03,13,01,47,1002.07
2016,03,13,01,48,1002.07
2016,03,13,01,49,1002.07
2016,03,13,01,50,1002.05
2016,03,13,01,51,1002.02
2016,03,13,01,52,1001.99
2016,03,13,01,53,1001.97
2016,03,13,01,54,1001.98
2016,03,13,01,55,1002.00
2016,03,13,01,56,1001.99
2016,03,13,01,57,1001.95
2016,03,13,01,58,1001.93
2016,03,13,01,59,1001.90
2016,03,13,03,00,1001.85
2016,03,13,03,01,1001.84
2016,03,13,03,02,1001.85
2016,03,13,03,03,1001.82
2016,03,13,03,04,1001.80
2016,03,13,03,05,1001.77
2016,03,13,03,06,1001.74
2016,03,13,03,07,1001.75
2016,03,13,03,08,1001.73
2016,03,13,03,09,1001.69
2016,03,13,03,10,1001.63
2016,03,13,03,11,1001.61
2016,03,13,03,12,1001.59
2016,03,13,03,13,1001.59
2016,03,13,03,14,1001.58
2016,03,13,03,15,1001.53
2016,03,13,03,16,1001.50
2016,03,13,03,17,1001.50
2016,03,13,03,18,1001.46
2016,03,13,03,19,1001.44
2016,03,13,03,20,1001.42
2016,03,13,03,21,1001.44
2016,03,13,03,22,1001.46
2016,03,13,03,23,1001.47
2016,03,13,03,24,1001.46
2016,03,13,03,25,1001.43
2016,03,13,03,26,1001.46
2016,03,13,03,27,1001.44
2016,03,13,03,28,1001.42
2016,03,13,03,29,1001.41
2016,03,13,03,30,1001.36
2016,03,13,03,31,1001.32
2016,03,13,03,32,1001.32
2016,03,13,03,33,1001.32
2016,03,13,03,34,1001.32
2016,03,13,03,35,1001.31
2016,03,13,03,36,1001.28
2016,03,13,03,37,1001.25
2016,03,13,03,38,1001.25
2016,03,13,03,39,1001.25
2016,03,13,03,40,1001.24
2016,03,13,03,41,1001.21
2016,03,13,03,42,1001.17
2016,03,13,03,43,1001.12
2016,03,13,03,44,1001.07
2016,03,13,03,49,1001.05
2016,03,13,03,50,1001.00
2016,03,13,03,51,1000.98
2016,03,13,03,52,1000.97
2016,03,13,03,53,1000.95
2016,03,13,03,54,1000.95
2016,03,13,03,55,1000.92
2016,03,13,03,56,1000.88
2016,03,13,03,57,1000.87
2016,03,13,03,58,1000.83
2016,03,13,03,59,1000.81
2016,03,13,04,00,1000.81
2016,03,13,04,01,1000.80
2016,03,13,04,02,1000.78
2016,03,13,04,03,1000.79
2016,03,13,04,04,1000.81
2016,03,13,04,05,1000.81
2016,03,13,04,06,1000.79
2016,03,13,04,07,1000.73
2016,03,13,04,08,1000.71
2016,03,13,04,09,1000.68
2016,03,13,04,10,1000.63
2016,03,13,04,11,1000.60
2016,03,13,04,12,1000.56
2016,03,13,04,13,1000.53
2016,03,13,04,14,1000.50
2016,03,13,04,15,1000.48
2016,03,13,04,16,1000.48
2016,03,13,04,17,1000.48
2016,03,13,04,18,1000.48
2016,03,13,04,19,1000.48
2016,03,13,04,20,1000.46
2016,03,13,04,21,1000.43
2016,03,13,04,22,1000.38
2016,03,13,04,23,1000.35
2016,03,13,04,24,1000.37
2016,03,13,04,25,1000.37
2016,03,13,04,26,1000.37
2016,03,13,04,27,1000.34
2016,03,13,04,28,1000.31
2016,03,13,04,29,1000.32
2016,03,13,04,30,1000.31
2016,03,13,04,31,1000.27
2016,03,13,04,32,1000.26
2016,03,13,04,33,1000.24
2016,03,13,04,34,1000.24
2016,03,13,04,35,1000.24
2016,03,13,04,36,1000.24
2016,03,13,04,37,1000.22
2016,03,13,04,38,1000.20
2016,03,13,04,39,1000.22
2016,03,13,04,40,1000.21
2016,03,13,04,41,1000.17
2016,03,13,04,42,1000.17
2016,03,13,04,43,1000.18
2016,03,13,04,44,1000.22
2016,03,13,04,45,1000.22
2016,03,13,04,46,1000.19
2016,03,13,04,47,1000.17
2016,03,13,04,48,1000.18
2016,03,13,04,49,1000.19
2016,03,13,04,50,1000.14
2016,03,13,04,51,1000.12
2016,03,13,04,52,1000.15
2016,03,13,04,53,1000.18
2016,03,13,04,54,1000.18
2016,03,13,04,55,1000.12
2016,03,13,04,56,1000.09
2016,03,13,04,57,1000.05
2016,03,13,04,58,1000.00
2016,03,13,04,59,999.97
2016,03,13,05,00,999.95
2016,03,13,05,01,999.93
2016,03,13,05,02,999.92
2016,03,13,05,03,999.89
2016,03,13,05,04,999.87
2016,03,13,05,05,999.85
2016,03,13,05,06,999.83
2016,03,13,05,07,999.80
2016,03,13,05,08,999.76
2016,03,13,05,09,999.74
2016,03,13,05,10,999.70
2016,03,13,05,11,999.68
2016,03,13,05,12,999.65
2016,03,13,05,13,999.64
2016,03,13,05,14,999.65
2016,03,13,05,15,999.63
2016,03,13,05,16,999.61
2016,03,13,05,17,999.57
2016,03,13,05,18,999.53
2016,03,13,05,19,999.53
2016,03,13,05,20,999.53
2016,03,13,05,21,999.54
2016,03,13,05,22,999.56
2016,03,13,05,23,999.55
2016,03,13,05,24,999.53
2016,03,13,05,25,999.53
2016,03,13,05,26,999.50
2016,03,13,05,27,999.45
2016,03,13,05,28,999.40
2016,03,13,05,29,999.34
2016,03,13,05,30,999.31
2016,03,13,05,31,999.25
2016,03,13,05,32,999.26
2016,03,13,05,33,999.34
2016,03,13,05,34,999.27
2016,03,13,05,35,999.19
2016,03,13,05,36,999.19
2016,03,13,05,37,999.19
2016,03,13,05,38,999.17
2016,03,13,05,39,999.17
2016,03,13,05,40,999.19
2016,03,13,05,41,999.19
2016,03,13,05,42,999.19
2016,03,13,05,43,999.19
2016,03,13,05,44,999.16
2016,03,13,05,45,999.11
2016,03,13,05,46,999.10
2016,03,13,05,47,999.11
2016,03,13,05,48,999.06
2016,03,13,05,49,999.05
2016,03,13,05,50,999.12
2016,03,13,05,51,999.09
2016,03,13,05,52,999.02
2016,03,13,05,53,999.01
2016,03,13,05,54,998.99
2016,03,13,05,55,998.99
2016,03,13,05,56,999.00
2016,03,13,05,57,999.01
2016,03,13,05,58,998.97
2016,03,13,05,59,998.95
2016,03,13,06,00,998.95
2016,03,13,06,01,998.95
2016,03,13,06,02,998.95
2016,03,13,06,03,998.95
2016,03,13,06,04,998.92
2016,03,13,06,05,998.87
2016,03,13,06,06,998.85
2016,03,13,06,07,998.85
2016,03,13,06,08,998.84
2016,03,13,06,09,998.83
2016,03,13,06,10,998.82
2016,03,13,06,11,998.80
2016,03,13,06,12,998.79
2016,03,13,06,13,998.73
2016,03,13,06,14,998.75
2016,03,13,06,15,998.80
2016,03,13,06,16,998.73
2016,03,13,06,17,998.66
2016,03,13,06,18,998.68
2016,03,13,06,19,998.68
2016,03,13,06,20,998.68
2016,03,13,06,21,998.65
2016,03,13,06,22,998.61
2016,03,13,06,23,998.61
2016,03,13,06,24,998.60
2016,03,13,06,25,998.55
2016,03,13,06,26,998.51
2016,03,13,06,27,998.50
2016,03,13,06,28,998.48
2016,03,13,06,29,998.48
2016,03,13,06,30,998.44
2016,03,13,06,31,998.38
2016,03,13,06,32,998.38
2016,03,13,06,33,998.33
2016,03,13,06,34,998.29
2016,03,13,06,35,998.32
2016,03,13,06,36,998.34
2016,03,13,06,37,998.31
2016,03,13,06,38,998.27
2016,03,13,06,39,998.30
2016,03,13,06,40,998.29
2016,03,13,06,41,998.23
2016,03,13,06,42,998.21
2016,03,13,06,43,998.23
2016,03,13,06,44,998.26
2016,03,13,06,45,998.23
2016,03,13,06,46,998.21
2016,03,13,06,47,998.19
2016,03,13,06,48,998.17
2016,03,13,06,49,998.16
2016,03,13,06,50,998.12
2016,03,13,06,51,998.10
2016,03,13,06,52,998.07
2016,03,13,06,53,998.02
2016,03,13,06,54,997.99
2016,03,13,06,55,997.94
2016,03,13,06,56,997.90
2016,03,13,06,57,997.87
2016,03,13,06,58,997.86
2016,03,13,06,59,997.89
2016,03,13,07,00,997.84
2016,03,13,07,01,997.80
2016,03,13,07,02,997.77
2016,03,13,07,03,997.70
2016,03,13,07,04,997.66
2016,03,13,07,05,997.66
2016,03,13,07,06,997.61
2016,03,13,07,07,997.56
2016,03,13,07,08,997.55
2016,03,13,07,09,997.52
2016,03,13,07,10,997.48
2016,03,13,07,11,997.48
2016,03,13,07,12,997.47
2016,03,13,07,13,997.43
2016,03,13,07,14,997.39
2016,03,13,07,15,997.34
2016,03,13,07,16,997.33
2016,03,13,07,17,997.29
2016,03,13,07,18,997.28
2016,03,13,07,19,997.30
2016,03,13,07,20,997.32
2016,03,13,07,21,997.24
2016,03,13,07,22,997.21
2016,03,13,07,23,997.18
2016,03,13,07,24,997.12
2016,03,13,07,25,997.03
2016,03,13,07,26,997.00
2016,03,13,07,27,997.01
2016,03,13,07,28,996.97
2016,03,13,07,29,996.95
2016,03,13,07,30,996.95
2016,03,13,07,31,996.95
2016,03,13,07,32,996.94
2016,03,13,07,33,996.91
2016,03,13,07,34,996.87
2016,03,13,07,35,996.85
2016,03,13,07,36,996.85
2016,03,13,07,37,996.85
2016,03,13,07,38,996.80
2016,03,13,07,39,996.78
2016,03,13,07,40,996.76
2016,03,13,07,41,996.70
2016,03,13,07,42,996.72
2016,03,13,07,43,996.69
2016,03,13,07,44,996.66
2016,03,13,07,45,996.67
2016,03,13,07,46,996.63
2016,03,13,07,47,996.60
2016,03,13,07,48,996.58
2016,03,13,07,49,996.57
2016,03,13,07,50,996.52
2016,03,13,07,51,996.48
2016,03,13,07,52,996.47
2016,03,13,07,53,996.45
2016,03,13,07,54,996.42
2016,03,13,07,55,996.38
2016,03,13,07,56,996.38
2016,03,13,07,57,996.38
2016,03,13,07,58,996.34
2016,03,13,07,59,996.26
2016,03,13,08,00,996.23
2016,03,13,08,01,996.19
2016,03,13,08,02,996.16
2016,03,13,08,03,996.13
2016,03,13,08,04,996.11
2016,03,13,08,05,996.09
2016,03,13,08,06,996.06
2016,03,13,08,07,995.99
2016,03,13,08,08,995.90
2016,03,13,08,09,995.82
2016,03,13,08,10,995.79
2016,03,13,08,11,995.75
2016,03,13,08,12,995.72
2016,03,13,08,13,995.69
2016,03,13,08,14,995.64
2016,03,13,08,15,995.60
2016,03,13,08,16,995.58
2016,03,13,08,17,995.56
2016,03,13,08,18,995.56
2016,03,13,08,19,995.56
2016,03,13,08,20,995.55
2016,03,13,08,21,995.52
2016,03,13,08,22,995.48
2016,03,13,08,23,995.41
2016,03,13,08,24,995.36
2016,03,13,08,25,995.32
2016,03,13,08,26,995.25
2016,03,13,08,27,995.21
2016,03,13,08,28,995.21
2016,03,13,08,29,995.20
2016,03,13,08,30,995.14
2016,03,13,08,31,995.09
2016,03,13,08,32,995.07
2016,03,13,08,33,995.08
2016,03,13,08,34,995.04
2016,03,13,08,35,995.01
2016,03,13,08,36,995.00
2016,03,13,08,37,995.01
2016,03,13,08,38,994.98
2016,03,13,08,39,994.94
2016,03,13,08,40,994.91
2016,03,13,08,41,994.87
2016,03,13,08,42,994.84
2016,03,13,08,43,994.79
2016,03,13,08,44,994.75
2016,03,13,08,45,994.74
2016,03,13,08,46,994.70
2016,03,13,08,47,994.68
2016,03,13,08,48,994.68
2016,03,13,08,49,994.67
2016,03,13,08,50,994.64
2016,03,13,08,51,994.60
2016,03,13,08,52,994.60
2016,03,13,08,53,994.60
2016,03,13,08,54,994.57
2016,03,13,08,55,994.55
2016,03,13,08,56,994.52
2016,03,13,08,57,994.47
2016,03,13,08,58,994.43
2016,03,13,08,59,994.39
2016,03,13,09,00,994.36
2016,03,13,09,01,994.38
2016,03,13,09,02,994.35
2016,03,13,09,03,994.30
2016,03,13,09,04,994.26
2016,03,13,09,05,994.23
2016,03,13,09,06,994.18
2016,03,13,09,07,994.13
2016,03,13,09,08,994.09
2016,03,13,09,09,994.07
2016,03,13,09,10,994.05
2016,03,13,09,11,993.97
2016,03,13,09,12,993.91
2016,03,13,09,13,993.87
2016,03,13,09,14,993.80
2016,03,13,09,15,993.79
2016,03,13,09,16,993.76
2016,03,13,09,17,993.71
2016,03,13,09,18,993.65
2016,03,13,09,19,993.62
2016,03,13,09,20,993.60
2016,03,13,09,21,993.58
2016,03,13,09,22,993.49
2016,03,13,09,23,993.42
2016,03,13,09,24,993.38
2016,03,13,09,25,993.34
2016,03,13,09,26,993.28
2016,03,13,09,27,993.23
2016,03,13,09,28,993.21
2016,03,13,09,29,993.19
2016,03,13,09,30,993.14
2016,03,13,09,31,993.15
2016,03,13,09,32,993.11
2016,03,13,09,33,993.09
2016,03,13,09,34,993.05
2016,03,13,09,35,992.98
2016,03,13,09,36,992.93
2016,03,13,09,37,992.85
2016,03,13,09,38,992.80
2016,03,13,09,39,992.79
2016,03,13,09,40,992.75
2016,03,13,09,41,992.74
2016,03,13,09,42,992.71
2016,03,13,09,43,992.66
2016,03,13,09,44,992.60
2016,03,13,09,45,992.55
2016,03,13,09,46,992.55
2016,03,13,09,47,992.53
2016,03,13,09,48,992.47
2016,03,13,09,49,992.44
2016,03,13,09,50,992.42
2016,03,13,09,51,992.38
2016,03,13,09,52,992.30
2016,03,13,09,53,992.27
2016,03,13,09,54,992.22
2016,03,13,09,55,992.16
2016,03,13,09,56,992.13
2016,03,13,09,57,992.07
2016,03,13,09,58,992.01
2016,03,13,09,59,991.98
2016,03,13,10,00,991.91
2016,03,13,10,01,991.85
2016,03,13,10,02,991.81
2016,03,13,10,03,991.78
2016,03,13,10,04,991.72
2016,03,13,10,05,991.69
2016,03,13,10,06,991.67
2016,03,13,10,07,991.63
2016,03,13,10,08,991.56
2016,03,13,10,09,991.51
2016,03,13,10,10,991.45
2016,03,13,10,11,991.42
2016,03,13,10,12,991.41
2016,03,13,10,13,991.41
2016,03,13,10,14,991.34
2016,03,13,10,15,991.31
2016,03,13,10,16,991.35
2016,03,13,10,17,991.31
2016,03,13,10,18,991.23
2016,03,13,10,19,991.22
2016,03,13,10,20,991.20
2016,03,13,10,21,991.17
2016,03,13,10,22,991.13
2016,03,13,10,23,991.10
2016,03,13,10,24,991.05
2016,03,13,10,25,990.99
2016,03,13,10,26,990.91
2016,03,13,10,27,990.88
2016,03,13,10,28,990.86
2016,03,13,10,29,990.83
2016,03,13,10,30,990.75
2016,03,13,10,31,990.71
2016,03,13,10,32,990.69
2016,03,13,10,33,990.69
2016,03,13,10,34,990.66
2016,03,13,10,35,990.62
2016,03,13,10,36,990.61
2016,03,13,10,37,990.58
2016,03,13,10,38,990.55
2016,03,13,10,39,990.54
2016,03,13,10,40,990.51
2016,03,13,10,41,990.49
2016,03,13,10,42,990.46
2016,03,13,10,43,990.41
2016,03,13,10,44,990.38
2016,03,13,10,45,990.37
2016,03,13,10,46,990.36
2016,03,13,10,47,990.37
2016,03,13,10,48,990.34
2016,03,13,10,49,990.33
2016,03,13,10,50,990.35
2016,03,13,10,51,990.34
2016,03,13,10,52,990.33
2016,03,13,10,53,990.34
2016,03,13,10,54,990.30
2016,03,13,10,55,990.28
2016,03,13,10,56,990.25
2016,03,13,10,57,990.20
2016,03,13,10,58,990.17
2016,03,13,10,59,990.16
2016,03,13,11,00,990.18
2016,03,13,11,01,990.17
2016,03,13,11,02,990.15
2016,03,13,11,03,990.14
2016,03,13,11,04,990.10
2016,03,13,11,05,990.07
2016,03,13,11,06,990.03
2016,03,13,11,07,990.02
2016,03,13,11,08,990.02
2016,03,13,11,09,989.97
2016,03,13,11,10,989.93
2016,03,13,11,11,989.90
2016,03,13,11,12,989.89
2016,03,13,11,13,989.91
2016,03,13,11,14,989.90
2016,03,13,11,15,989.89
2016,03,13,11,16,989.86
2016,03,13,11,17,989.78
2016,03,13,11,18,989.80
2016,03,13,11,19,989.75
2016,03,13,11,20,989.71
2016,03,13,11,21,989.71
2016,03,13,11,22,989.68
2016,03,13,11,23,989.64
2016,03,13,11,24,989.61
2016,03,13,11,25,989.59
2016,03,13,11,26,989.64
2016,03,13,11,27,989.61
2016,03,13,11,28,989.59
2016,03,13,11,29,989.64
2016,03,13,11,30,989.64
2016,03,13,11,31,989.62
2016,03,13,11,32,989.61
2016,03,13,11,33,989.70
2016,03,13,11,34,989.78
2016,03,13,11,35,989.68
2016,03,13,11,36,989.65
2016,03,13,11,37,989.64
2016,03,13,11,38,989.61
2016,03,13,11,39,989.68
2016,03,13,11,40,989.70
2016,03,13,11,41,989.56
2016,03,13,11,42,989.55
2016,03,13,11,43,989.54
2016,03,13,11,44,989.51
2016,03,13,11,45,989.53
2016,03,13,11,46,989.50
2016,03,13,11,47,989.46
2016,03,13,11,48,989.42
2016,03,13,11,49,989.44
2016,03,13,11,50,989.44
2016,03,13,11,51,989.45
2016,03,13,11,52,989.48
2016,03,13,11,53,989.49
2016,03,13,11,54,989.46
2016,03,13,11,55,989.41
2016,03,13,11,56,989.41
2016,03,13,11,57,989.46
2016,03,13,11,58,989.43
2016,03,13,11,59,989.41
2016,03,13,12,00,989.46
2016,03,13,12,01,989.50
2016,03,13,12,02,989.49
2016,03,13,12,03,989.49
2016,03,13,12,04,989.54
2016,03,13,12,05,989.58
2016,03,13,12,06,989.61
2016,03,13,12,07,989.54
2016,03,13,12,08,989.48
2016,03,13,12,09,989.44
2016,03,13,12,10,989.44
2016,03,13,12,11,989.44
2016,03,13,12,12,989.45
2016,03,13,12,13,989.47
2016,03,13,12,14,989.45
2016,03,13,12,15,989.39
2016,03,13,12,16,989.38
2016,03,13,12,17,989.36
2016,03,13,12,18,989.30
2016,03,13,12,19,989.30
2016,03,13,12,20,989.30
2016,03,13,12,21,989.31
2016,03,13,12,22,989.29
2016,03,13,12,23,989.23
2016,03,13,12,24,989.24
2016,03,13,12,25,989.28
2016,03,13,12,26,989.29
2016,03,13,12,27,989.27
2016,03,13,12,28,989.28
2016,03,13,12,29,989.29
2016,03,13,12,30,989.26
2016,03,13,12,31,989.22
2016,03,13,12,32,989.21
2016,03,13,12,33,989.23
2016,03,13,12,34,989.16
2016,03,13,12,35,989.06
2016,03,13,12,36,989.08
2016,03,13,12,37,989.09
2016,03,13,12,38,989.04
2016,03,13,12,39,989.00
2016,03,13,12,40,988.97
2016,03,13,12,41,988.90
2016,03,13,12,42,988.83
2016,03,13,12,43,988.82
2016,03,13,12,44,988.78
2016,03,13,12,45,988.75
2016,03,13,12,46,988.68
2016,03,13,12,47,988.63
2016,03,13,12,48,988.63
2016,03,13,12,49,988.57
2016,03,13,12,50,988.54
2016,03,13,12,51,988.49
2016,03,13,12,52,988.45
2016,03,13,12,53,988.44
2016,03,13,12,54,988.41
2016,03,13,12,55,988.39
2016,03,13,12,56,988.39
2016,03,13,12,57,988.38
2016,03,13,12,58,988.34
2016,03,13,12,59,988.28
2016,03,13,13,00,988.20
2016,03,13,13,01,988.11
2016,03,13,13,02,988.02
2016,03,13,13,03,987.96
2016,03,13,13,04,987.96
2016,03,13,13,05,987.90
2016,03,13,13,06,987.86
2016,03,13,13,07,987.79
2016,03,13,13,08,987.73
2016,03,13,13,09,987.70
2016,03,13,13,10,987.64
2016,03,13,13,11,987.57
2016,03,13,13,12,987.56
2016,03,13,13,13,987.52
2016,03,13,13,14,987.45
2016,03,13,13,15,987.42
2016,03,13,13,16,987.47
2016,03,13,13,17,987.46
2016,03,13,13,18,987.44
2016,03,13,13,19,987.43
2016,03,13,13,20,987.39
2016,03,13,13,21,987.38
2016,03,13,13,22,987.38
2016,03,13,13,23,987.35
2016,03,13,13,24,987.37
2016,03,13,13,25,987.35
2016,03,13,13,26,987.30
2016,03,13,13,27,987.27
2016,03,13,13,28,987.17
2016,03,13,13,29,987.11
2016,03,13,13,30,987.05
2016,03,13,13,31,987.01
2016,03,13,13,32,986.95
2016,03,13,13,33,986.92
2016,03,13,13,34,986.89
2016,03,13,13,35,986.83
2016,03,13,13,36,986.76
2016,03,13,13,37,986.72
2016,03,13,13,38,986.64
2016,03,13,13,39,986.57
2016,03,13,13,40,986.54
2016,03,13,13,41,986.57
2016,03,13,13,42,986.48
2016,03,13,13,43,986.41
2016,03,13,13,44,986.38
2016,03,13,13,45,986.35
2016,03,13,13,46,986.34
2016,03,13,13,47,986.31
2016,03,13,13,48,986.25
2016,03,13,13,49,986.19
2016,03,13,13,50,986.17
2016,03,13,13,51,986.08
2016,03,13,13,52,986.09
2016,03,13,13,53,986.10
2016,03,13,13,54,986.05
2016,03,13,13,55,986.04
2016,03,13,13,56,985.99
2016,03,13,13,57,985.91
2016,03,13,13,58,985.89
2016,03,13,13,59,985.80
2016,03,13,14,00,985.73
2016,03,13,14,01,985.76
2016,03,13,14,02,985.71
2016,03,13,14,03,985.70
2016,03,13,14,04,985.68
2016,03,13,14,05,985.66
2016,03,13,14,06,985.58
2016,03,13,14,07,985.52
2016,03,13,14,08,985.52
2016,03,13,14,09,985.46
2016,03,13,14,10,985.43
2016,03,13,14,11,985.41
2016,03,13,14,12,985.39
2016,03,13,14,13,985.29
2016,03,13,14,14,985.22
2016,03,13,14,15,985.26
2016,03,13,14,16,985.24
2016,03,13,14,17,985.20
2016,03,13,14,18,985.13
2016,03,13,14,19,985.10
2016,03,13,14,20,985.04
2016,03,13,14,21,985.02
2016,03,13,14,22,984.94
2016,03,13,14,23,984.97
2016,03,13,14,24,984.96
2016,03,13,14,25,984.87
2016,03,13,14,26,984.76
2016,03,13,14,27,984.72
2016,03,13,14,28,984.65
2016,03,13,14,29,984.66
2016,03,13,14,30,984.58
2016,03,13,14,31,984.55
2016,03,13,14,32,984.54
2016,03,13,14,33,984.54
2016,03,13,14,34,984.45
2016,03,13,14,35,984.34
2016,03,13,14,36,984.28
2016,03,13,14,37,984.25
2016,03,13,14,38,984.22
2016,03,13,14,39,984.14
2016,03,13,14,40,984.12
2016,03,13,14,41,984.09
2016,03,13,14,42,984.01
2016,03,13,14,43,983.96
2016,03,13,14,44,983.90
2016,03,13,14,45,983.86
2016,03,13,14,46,983.86
2016,03,13,14,47,983.75
2016,03,13,14,48,983.63
2016,03,13,14,49,983.61
2016,03,13,14,50,983.58
2016,03,13,14,51,983.53
2016,03,13,14,52,983.54
2016,03,13,14,53,983.47
2016,03,13,14,54,983.42
2016,03,13,14,55,983.35
2016,03,13,14,56,983.31
2016,03,13,14,57,983.25
2016,03,13,14,58,983.16
2016,03,13,14,59,983.20
2016,03,13,15,00,983.21
2016,03,13,15,01,983.23
2016,03,13,15,02,983.22
2016,03,13,15,03,983.22
2016,03,13,15,04,983.12
2016,03,13,15,05,983.03
2016,03,13,15,06,982.91
2016,03,13,15,07,982.88
2016,03,13,15,08,982.89
2016,03,13,15,09,982.85
2016,03,13,15,10,982.79
2016,03,13,15,11,982.80
2016,03,13,15,12,982.86
2016,03,13,15,13,982.82
2016,03,13,15,14,982.78
2016,03,13,15,15,982.76
2016,03,13,15,16,982.78
2016,03,13,15,17,982.73
2016,03,13,15,18,982.74
2016,03,13,15,19,982.75
2016,03,13,15,20,982.70
2016,03,13,15,21,982.63
2016,03,13,15,22,982.61
2016,03,13,15,23,982.57
2016,03,13,15,24,982.57
2016,03,13,15,25,982.53
2016,03,13,15,26,982.51
2016,03,13,15,27,982.46
2016,03,13,15,28,982.45
2016,03,13,15,29,982.43
2016,03,13,15,30,982.43
2016,03,13,15,31,982.41
2016,03,13,15,32,982.36
2016,03,13,15,33,982.35
2016,03,13,15,34,982.30
2016,03,13,15,35,982.26
2016,03,13,15,36,982.25
2016,03,13,15,37,982.21
2016,03,13,15,38,982.19
2016,03,13,15,39,982.17
2016,03,13,15,40,982.12
2016,03,13,15,41,982.11
2016,03,13,15,42,982.08
2016,03,13,15,43,982.06
2016,03,13,15,44,982.09
2016,03,13,15,45,982.09
2016,03,13,15,46,982.09
2016,03,13,15,47,982.08
2016,03,13,15,48,982.06
2016,03,13,15,49,982.09
2016,03,13,15,50,982.08
2016,03,13,15,51,982.05
2016,03,13,15,52,982.05
2016,03,13,15,53,982.05
2016,03,13,15,54,982.06
2016,03,13,15,55,982.09
2016,03,13,15,56,982.10
2016,03,13,15,57,982.13
2016,03,13,15,58,982.16
2016,03,13,15,59,982.20
2016,03,13,16,00,982.23
2016,03,13,16,01,982.27
2016,03,13,16,02,982.29
2016,03,13,16,03,982.30
2016,03,13,16,04,982.32
2016,03,13,16,05,982.32
2016,03,13,16,06,982.32
2016,03,13,16,07,982.33
2016,03,13,16,08,982.37
2016,03,13,16,09,982.39
2016,03,13,16,10,982.39
2016,03,13,16,11,982.41
2016,03,13,16,12,982.45
2016,03,13,16,13,982.44
2016,03,13,16,14,982.47
2016,03,13,16,15,982.49
2016,03,13,16,16,982.49
2016,03,13,16,17,982.50
2016,03,13,16,18,982.54
2016,03,13,16,19,982.57
2016,03,13,16,20,982.59
2016,03,13,16,21,982.60
2016,03,13,16,22,982.63
2016,03,13,16,23,982.64
2016,03,13,16,24,982.68
2016,03,13,16,25,982.74
2016,03,13,16,26,982.77
2016,03,13,16,27,982.83
2016,03,13,16,28,982.88
2016,03,13,16,29,982.90
2016,03,13,16,30,982.91
2016,03,13,16,31,982.93
2016,03,13,16,32,982.92
2016,03,13,16,33,982.92
2016,03,13,16,34,982.98
2016,03,13,16,35,983.01
2016,03,13,16,36,983.05
2016,03,13,16,37,983.08
2016,03,13,16,38,983.11
2016,03,13,16,39,983.14
2016,03,13,16,40,983.16
2016,03,13,16,41,983.21
2016,03,13,16,42,983.25
2016,03,13,16,43,983.29
2016,03,13,16,44,983.35
2016,03,13,16,45,983.37
2016,03,13,16,46,983.37
2016,03,13,16,47,983.37
2016,03,13,16,48,983.39
2016,03,13,16,49,983.45
2016,03,13,16,50,983.50
2016,03,13,16,51,983.53
2016,03,13,16,52,983.53
2016,03,13,16,53,983.57
2016,03,13,16,54,983.54
2016,03,13,16,55,983.55
2016,03,13,16,56,983.57
2016,03,13,16,57,983.54
2016,03,13,16,58,983.55
2016,03,13,16,59,983.57
2016,03,13,17,00,983.53
2016,03,13,17,01,983.52
2016,03,13,17,02,983.53
2016,03,13,17,03,983.52
2016,03,13,17,04,983.55
2016,03,13,17,05,983.57
2016,03,13,17,06,983.55
2016,03,13,17,07,983.59
2016,03,13,17,08,983.62
2016,03,13,17,09,983.66
2016,03,13,17,10,983.73
2016,03,13,17,11,983.78
2016,03,13,17,12,983.79
2016,03,13,17,13,983.83
2016,03,13,17,14,983.90
2016,03,13,17,15,983.97
2016,03,13,17,16,984.04
2016,03,13,17,17,984.10
2016,03,13,17,18,984.17
2016,03,13,17,19,984.25
2016,03,13,17,20,984.33
2016,03,13,17,21,984.38
2016,03,13,17,22,984.45
2016,03,13,17,23,984.50
2016,03,13,17,24,984.58
2016,03,13,17,25,984.67
2016,03,13,17,26,984.70
2016,03,13,17,27,984.77
2016,03,13,17,28,984.85
2016,03,13,17,29,984.92
2016,03,13,17,30,984.98